Tiempo cada hora Mullovka

Hoy, 23 Octubre, Viernes

Tiempo Temperatura Precipitaciones Viento Presión Humedad
00:00 0°C° 0 mm 1 mps 753 mmHg 76%
01:00 0°C° 0 mm 1 mps 753 mmHg 76%
02:00 -2°C° 0 mm 2 mps 753 mmHg 76%
03:00 -2°C° 0 mm 2 mps 753 mmHg 73%
04:00 -2°C° 0 mm 2 mps 752 mmHg 71%
05:00 -2°C° 0 mm 2 mps 752 mmHg 70%
06:00 -2°C° 0 mm 3 mps 752 mmHg 69%
07:00 -2°C° 0 mm 4 mps 751 mmHg 75%
08:00 -1°C° 0 mm 5 mps 751 mmHg 81%
09:00 -2°C° 0 mm 6 mps 750 mmHg 88%
10:00 -1°C° 0.2 mm 6 mps 750 mmHg 90%
11:00 -1°C° 0.2 mm 6 mps 749 mmHg 92%
12:00 +1°C° 0.2 mm 6 mps 748 mmHg 94%
13:00 +1°C° 0.8 mm 6 mps 748 mmHg 93%
14:00 +1°C° 0.8 mm 6 mps 747 mmHg 92%
15:00 +2°C° 0.8 mm 6 mps 747 mmHg 91%
16:00 +8°C° 0.4 mm 6 mps 743 mmHg 90%
17:00 +5°C° 0.4 mm 5 mps 744 mmHg 92%
18:00 +2°C° 0.4 mm 5 mps 745 mmHg 93%
19:00 +3°C° 0.2 mm 5 mps 745 mmHg 94%
20:00 +3°C° 0.2 mm 5 mps 745 mmHg 94%
21:00 +5°C° 0.2 mm 5 mps 745 mmHg 94%
22:00 +5°C° 0 mm 5 mps 744 mmHg 94%
23:00 +5°C° 0 mm 4 mps 744 mmHg 95%

Mañana, 24 Octubre, Sábado

Tiempo Temperatura Precipitaciones Viento Presión Humedad
00:00 +6°C° 0 mm 4 mps 744 mmHg 95%
01:00 +6°C° 0.3 mm 4 mps 743 mmHg 95%
02:00 +6°C° 0.3 mm 4 mps 743 mmHg 95%
03:00 +6°C° 0.3 mm 5 mps 743 mmHg 96%
04:00 +6°C° 0.5 mm 5 mps 742 mmHg 95%
05:00 +7°C° 0.5 mm 5 mps 742 mmHg 95%
06:00 +7°C° 0.5 mm 6 mps 741 mmHg 94%
07:00 +8°C° 0.4 mm 6 mps 741 mmHg 92%
08:00 +9°C° 0.4 mm 6 mps 741 mmHg 89%
09:00 +9°C° 0.4 mm 6 mps 741 mmHg 87%
10:00 +10°C° 0.3 mm 6 mps 741 mmHg 83%
11:00 +11°C° 0.3 mm 6 mps 742 mmHg 79%
12:00 +11°C° 0.3 mm 7 mps 742 mmHg 75%
13:00 +11°C° 0.1 mm 6 mps 742 mmHg 73%
14:00 +11°C° 0.1 mm 6 mps 743 mmHg 71%
15:00 +12°C° 0.1 mm 5 mps 743 mmHg 69%
16:00 +12°C° 0 mm 4 mps 744 mmHg 71%
17:00 +11°C° 0 mm 4 mps 744 mmHg 73%
18:00 +10°C° 0 mm 3 mps 744 mmHg 75%
19:00 +10°C° 0 mm 3 mps 745 mmHg 76%
20:00 +10°C° 0 mm 3 mps 745 mmHg 77%
21:00 +9°C° 0 mm 3 mps 746 mmHg 78%
22:00 +9°C° 0 mm 3 mps 746 mmHg 78%
23:00 +9°C° 0 mm 3 mps 746 mmHg 79%

Pasado mañana, 25 Octubre, Domingo

Tiempo Temperatura Precipitaciones Viento Presión Humedad
00:00 +9°C° 0 mm 2 mps 746 mmHg 79%
01:00 +8°C° 0 mm 2 mps 746 mmHg 81%
02:00 +8°C° 0 mm 2 mps 746 mmHg 83%
03:00 +7°C° 0 mm 2 mps 746 mmHg 85%
04:00 +7°C° 0 mm 2 mps 746 mmHg 85%
05:00 +7°C° 0 mm 2 mps 746 mmHg 86%
06:00 +7°C° 0 mm 2 mps 746 mmHg 86%
07:00 +7°C° 0 mm 2 mps 746 mmHg 83%
08:00 +8°C° 0 mm 2 mps 746 mmHg 80%
09:00 +9°C° 0 mm 2 mps 746 mmHg 77%
10:00 +9°C° 0.1 mm 2 mps 745 mmHg 76%
11:00 +10°C° 0.1 mm 1 mps 745 mmHg 74%
12:00 +11°C° 0.1 mm 1 mps 745 mmHg 72%
13:00 +10°C° 0.8 mm 1 mps 744 mmHg 79%
14:00 +9°C° 0.8 mm 1 mps 744 mmHg 85%
15:00 +9°C° 0.8 mm 1 mps 743 mmHg 91%
16:00 +8°C° 0.9 mm 2 mps 743 mmHg 92%
17:00 +7°C° 0.9 mm 3 mps 743 mmHg 92%
18:00 +7°C° 0.9 mm 3 mps 743 mmHg 93%
19:00 +6°C° 0.1 mm 4 mps 743 mmHg 92%
20:00 +6°C° 0.1 mm 4 mps 743 mmHg 90%
21:00 +6°C° 0.1 mm 5 mps 744 mmHg 89%
22:00 +6°C° 0 mm 5 mps 744 mmHg 88%
23:00 +5°C° 0 mm 5 mps 744 mmHg 87%

, 26 Octubre, Lunes

Tiempo Temperatura Precipitaciones Viento Presión Humedad
00:00 +3°C° 0 mm 5 mps 745 mmHg 86%
01:00 +3°C° 0 mm 5 mps 745 mmHg 85%
02:00 +3°C° 0 mm 5 mps 746 mmHg 83%
03:00 +3°C° 0 mm 5 mps 747 mmHg 82%
04:00 +3°C° 0 mm 5 mps 747 mmHg 82%
05:00 +2°C° 0 mm 6 mps 747 mmHg 83%
06:00 +2°C° 0 mm 6 mps 748 mmHg 83%
07:00 +2°C° 0 mm 7 mps 748 mmHg 78%
08:00 +1°C° 0 mm 8 mps 748 mmHg 73%
09:00 +1°C° 0 mm 8 mps 748 mmHg 68%
10:00 +1°C° 0 mm 8 mps 749 mmHg 66%
11:00 +1°C° 0 mm 8 mps 749 mmHg 64%
12:00 +1°C° 0 mm 8 mps 749 mmHg 62%
13:00 +1°C° 0.1 mm 8 mps 750 mmHg 63%
14:00 +1°C° 0.1 mm 8 mps 751 mmHg 64%
15:00 0°C° 0.1 mm 8 mps 752 mmHg 65%
16:00 0°C° 0 mm 7 mps 752 mmHg 68%
17:00 -1°C° 0 mm 6 mps 753 mmHg 70%
18:00 -1°C° 0 mm 6 mps 754 mmHg 72%
19:00 -2°C° 0 mm 6 mps 754 mmHg 73%
20:00 -2°C° 0 mm 6 mps 755 mmHg 74%
21:00 -2°C° 0 mm 6 mps 756 mmHg 75%
22:00 -1°C° 0 mm 5 mps 756 mmHg 77%
23:00 -2°C° 0 mm 5 mps 756 mmHg 78%

26 Octubre, Lunes

Tiempo Temperatura Precipitaciones Viento Presión Humedad
00:00 +3°C° 0 mm 5 mps 745 mmHg 86%
01:00 +3°C° 0 mm 5 mps 745 mmHg 85%
02:00 +3°C° 0 mm 5 mps 746 mmHg 83%
03:00 +3°C° 0 mm 5 mps 747 mmHg 82%
04:00 +3°C° 0 mm 5 mps 747 mmHg 82%
05:00 +2°C° 0 mm 6 mps 747 mmHg 83%
06:00 +2°C° 0 mm 6 mps 748 mmHg 83%
07:00 +2°C° 0 mm 7 mps 748 mmHg 78%
08:00 +1°C° 0 mm 8 mps 748 mmHg 73%
09:00 +1°C° 0 mm 8 mps 748 mmHg 68%
10:00 +1°C° 0 mm 8 mps 749 mmHg 66%
11:00 +1°C° 0 mm 8 mps 749 mmHg 64%
12:00 +1°C° 0 mm 8 mps 749 mmHg 62%
13:00 +1°C° 0.1 mm 8 mps 750 mmHg 63%
14:00 +1°C° 0.1 mm 8 mps 751 mmHg 64%
15:00 0°C° 0.1 mm 8 mps 752 mmHg 65%
16:00 0°C° 0 mm 7 mps 752 mmHg 68%
17:00 -1°C° 0 mm 6 mps 753 mmHg 70%
18:00 -1°C° 0 mm 6 mps 754 mmHg 72%
19:00 -2°C° 0 mm 6 mps 754 mmHg 73%
20:00 -2°C° 0 mm 6 mps 755 mmHg 74%
21:00 -2°C° 0 mm 6 mps 756 mmHg 75%
22:00 -1°C° 0 mm 5 mps 756 mmHg 77%
23:00 -2°C° 0 mm 5 mps 756 mmHg 78%

27 Octubre, Martes

Tiempo Temperatura Precipitaciones Viento Presión Humedad
00:00 -2°C° 0 mm 4 mps 757 mmHg 80%
01:00 -2°C° 0 mm 4 mps 757 mmHg 82%
02:00 -3°C° 0 mm 4 mps 757 mmHg 84%
03:00 -3°C° 0 mm 4 mps 758 mmHg 86%
04:00 -3°C° 0 mm 4 mps 758 mmHg 86%
05:00 -3°C° 0 mm 4 mps 759 mmHg 86%
06:00 -3°C° 0 mm 4 mps 759 mmHg 86%
07:00 -3°C° 0 mm 4 mps 760 mmHg 82%
08:00 -2°C° 0 mm 4 mps 760 mmHg 79%
09:00 -1°C° 0 mm 4 mps 760 mmHg 75%
10:00 0°C° 0 mm 4 mps 760 mmHg 70%
11:00 +1°C° 0 mm 3 mps 761 mmHg 66%
12:00 +2°C° 0 mm 3 mps 761 mmHg 61%
13:00 +3°C° 0 mm 3 mps 761 mmHg 62%
14:00 +3°C° 0 mm 3 mps 761 mmHg 63%
15:00 +3°C° 0 mm 3 mps 761 mmHg 64%
16:00 +3°C° 0 mm 2 mps 761 mmHg 69%
17:00 +2°C° 0 mm 2 mps 761 mmHg 74%
18:00 +2°C° 0 mm 1 mps 762 mmHg 78%
19:00 +2°C° 0 mm 1 mps 762 mmHg 79%
20:00 +1°C° 0 mm 1 mps 762 mmHg 79%
21:00 0°C° 0 mm 0 mps 762 mmHg 79%
22:00 +1°C° 0 mm 1 mps 762 mmHg 77%
23:00 +1°C° 0 mm 1 mps 762 mmHg 76%

28 Octubre, Miércoles

Tiempo Temperatura Precipitaciones Viento Presión Humedad
00:00 +1°C° 0 mm 1 mps 762 mmHg 74%
01:00 +1°C° 0 mm 1 mps 762 mmHg 73%
02:00 +1°C° 0 mm 1 mps 762 mmHg 72%
03:00 -1°C° 0 mm 2 mps 762 mmHg 72%
04:00 -1°C° 0 mm 2 mps 762 mmHg 72%
05:00 -1°C° 0 mm 2 mps 762 mmHg 72%
06:00 -1°C° 0 mm 2 mps 762 mmHg 73%
07:00 +1°C° 0 mm 2 mps 762 mmHg 68%
08:00 +1°C° 0 mm 3 mps 762 mmHg 64%
09:00 +2°C° 0 mm 3 mps 762 mmHg 59%
10:00 +2°C° 0 mm 3 mps 762 mmHg 57%
11:00 +3°C° 0 mm 3 mps 761 mmHg 55%
12:00 +4°C° 0 mm 4 mps 761 mmHg 53%
13:00 +4°C° 0 mm 4 mps 761 mmHg 55%
14:00 +3°C° 0 mm 3 mps 761 mmHg 58%
15:00 +3°C° 0 mm 3 mps 761 mmHg 61%
16:00 +2°C° 0 mm 3 mps 761 mmHg 65%
17:00 +2°C° 0 mm 3 mps 760 mmHg 70%
18:00 +1°C° 0 mm 3 mps 760 mmHg 74%
19:00 +1°C° 0 mm 3 mps 760 mmHg 74%
20:00 0°C° 0 mm 3 mps 760 mmHg 75%
21:00 0°C° 0 mm 3 mps 760 mmHg 75%
22:00 0°C° 0 mm 3 mps 760 mmHg 75%
23:00 0°C° 0 mm 3 mps 760 mmHg 75%
Mostrar más

Necesitamos Su Consentimiento

Meteoprog y nuestros Proveedores de Servicios pueden almacenar y acceder a sus datos personales como cookies, identificadores de dispositivo u otras tecnologías similares de su dispositivo y procesar dichos datos para personalizar contenido y anuncios, además de ofrecer funciones de redes sociales y analizar el tráfico.

  • Almacenar y/o acceder a información en su dispositivo

    Se puede almacenar o acceder a cookies, identificadores de dispositivo u otra información de su dispositivo para los fines anteriormente indicados.

  • Anuncios y contenido personalizados, medición de anuncios y contenido, percepciones del público, y desarrollo de productos

    Los anuncios y el contenido pueden personalizarse en base a su perfil. Se pueden añadir más datos para personalizar mejor los anuncios y contenidos. Se puede medir el rendimiento de los anuncios y contenidos. Se puede obtener la percepción sobre el público que ha visto los anuncios y contenidos. Dichos datos pueden usarse para desarrollar o mejorar la experiencia del usuario, sistemas y software.

Al hacer clic en ‘Estoy De Acuerdo’ usted permitirá el uso de las cookies, identificadores de dispositivo, balizas web u otras tecnologías similares indicadas. Su configuración puede cambiarse desde el navegador de su dispositivo.

Para ciertos fines, los intereses legítimos pueden ser considerados por encima del consentimiento. Puede leer más sobre ello en nuestra Política de Privacidad y Cookies.